Theta_e
323 322 319 317 315 314 312 311 311 310 312 312 312 311 310 308 308 307 307 306 307 306
316 315 313 312 311 309 309 312 312 311 308 309 308 306 305 304 304 304 304 305 305 305
313 312 311 310 310 310 310 311 309 309 308 305 304 303 301 300 302 302 302 305 304 302
310 309 309 309 308 307 307 308 308 309 305 302 302 301 301 301 303 303 302 303 303 303
306 306 306 306 306 306 305 306 307 306 303 303 302 300 300 300 302 302 302 303 302 302
304 304 304 305 305 306 305 305 305 302 301 302 301 300 300 300 300 300 301 302 302 302
302 303 304 304 304 304 304 304 303 301 302 302 301 300 300 299 298 298 301 302 302 302
303 305 304 304 303 304 303 303 303 303 302 301 301 301 298 298 297 297 299 301 302 302
306 304 303 302 302 301 301 302 302 302 302 301 301 299 299 300 297 297 298 298 299 300
304 302 301 301 300 300 299 299 299 300 300 296 296 297 297 301 297 296 296 296 299 301
302 301 300 299 298 298 298 297 297 298 297 294 297 297 296 298 295 295 296 296 298 302
302 300 299 297 296 297 296 296 297 299 297 294 295 296 295 296 296 297 296 298 300 302
301 299 298 297 297 297 296 297 300 301 297 299 295 295 294 295 298 298 297 298 302 301
299 298 298 297 297 296 296 295 295 295 295 295 295 294 294 294 294 295 296 298 299 300
Wind_Speed
11 8 8 8 7 7 7 6 7 8 8 9 9 8 7 6 5 6 5 7 6 3
12 12 9 10 8 6 6 7 7 8 9 9 9 7 6 5 6 5 5 5 5 3
10 10 8 8 10 9 8 8 7 9 9 9 8 7 6 5 5 6 4 4 4 3
9 8 8 11 9 7 7 6 8 8 8 8 8 7 8 7 8 8 6 6 7 7
9 9 10 9 7 6 7 6 7 8 8 8 8 7 9 8 8 8 8 8 6 5
8 8 8 7 7 7 7 7 7 8 7 7 7 8 7 7 7 6 6 6 6 6
7 7 7 7 7 7 7 7 7 6 6 6 6 7 7 7 7 6 6 6 7 8
7 7 7 7 6 6 7 6 6 6 5 6 6 5 6 6 6 6 7 8 7 6
9 8 7 7 7 7 7 7 6 5 5 6 6 11 13 11 6 6 5 6 7 7
9 8 6 6 7 7 6 5 6 6 7 7 5 12 14 13 5 5 6 7 8 8
7 6 6 6 7 6 5 5 3 5 6 5 6 12 14 13 6 6 6 7 7 7
6 6 6 6 6 4 4 4 4 3 6 6 8 15 15 11 7 6 7 6 6 9
6 6 5 4 4 3 3 4 5 9 6 8 7 12 16 14 6 7 5 6 6 8
6 5 3 4 4 4 5 6 6 6 5 6 8 10 16 15 6 6 6 6 6 6
Wind_Direction
83 84 77 67 69 69 67 59 47 54 52 51 49 50 56 52 43 31 25 22 14 10
72 72 74 69 65 61 53 61 52 55 59 55 50 45 52 54 39 29 16 15 17 25
69 68 72 76 72 59 53 49 49 57 65 57 47 35 37 40 26 32 10 24 27 17
77 73 70 65 58 53 50 42 49 72 71 60 48 34 37 25 25 24 11 7 13 1
75 64 64 62 56 51 48 35 51 75 68 58 47 35 34 24 12 11 2 350 345 325
70 71 67 61 52 43 42 40 53 69 62 57 44 34 20 17 358 348 334 319 319 316
82 79 72 65 57 53 47 61 67 68 62 52 43 29 5 355 346 336 324 315 322 325
87 82 73 64 51 44 45 53 68 69 50 42 41 20 348 334 331 328 328 332 321 332
83 75 68 59 52 40 36 43 47 36 37 44 36 359 350 354 344 335 341 349 341 342
84 76 66 63 51 41 44 48 38 39 55 62 25 2 6 10 6 9 3 353 351 349
90 84 66 61 54 40 28 26 0 44 87 72 28 15 14 7 3 3 354 343 333 346
96 86 73 62 49 24 21 4 353 340 103 68 41 23 16 12 350 350 340 329 337 20
97 97 93 79 52 29 12 10 42 58 71 50 30 17 19 10 349 349 344 340 354 13
106 116 107 72 61 34 62 54 47 57 41 48 32 360 8 5 353 349 334 354 350 345